Погода в Вологде

Погода в Вологде : погода сейчас, прогноз погоды и архив. Всё, что Вы хотите узнать о погоде в Вологде!

Хотите узнать прогноз погоды в Вологде? Тогда Вам сюда: Погода в Вологде

Поиск расширенной информации на нашем сайте:

Другие новости

Новости СМИ2

Главная страница сайта

Новости сайта

02.10.2013

Напоминаем, что на нашем новом сайте вы можете получить высокодетализированные прогнозы погоды по пунктам России, СНГ и мира (включающие важные для авиации метеовеличины, такие как направление и скорость ветра, видимость, явления погоды, количество и форма облачности, нижняя и верхняя граница облачности), а также ознакомиться с разнообразными материалами по авиационной метеорологии и подборкой полезных ссылок на эту тему.

Сайт Метеоцентр.Азия посвящён разработке технологий оптимизации авиаметеорологического обслуживания, включая проектирование и перспективное создание нескольких автоматизированных авиаметеорологических систем:
- система выпуска высокодетальных прогностических карт явлений погоды для нижнего воздушного пространства по России и ближнему зарубежью;
- система верификации прогнозов TAF (выпускаемых синоптиками официальных АМСГ РФ и ближнего зарубежья) и AUTOTAF (выпускаемых сайтом Метеоцентр.Азия) - выявление ошибок, онлайн-сопоставление с фактической погодой METAR, автоматическое внесение коррективов в прогнозы при резком отклонении фактической погоды от прогноза, подсчёт оправдываемости прогнозов по элементам и в целом;
- система обработки, анализа и отображения авиаметеорологической информации для применения провайдерами метеорологической информации.


Погода в Вологде - сегодня

Время (UTC), дата Ветер
(°,м/с) 
Видим.   Явления Облачность Т
(°С)
Тd
(°С)
f(%) Тe
(°С)
Pmin
(гПа)
dP
(гПа)
Po
(мм)
O2
(г/м3)
Тmin Tmax R s Состояние
почвы
18 18.01.17 260 (З) 20000 м  в посл. час снег  10/10 360 м 
[Sc]
-5.7 -7.1 90 -7  1024.7  -0.5  756  312           
21 18.01.17 240 (ЮЗ) 20000 м    10/10 720 м 
[Sc]
-5.2 -6.2 93 -8  1023.4  -1.3  755  311           
00 19.01.17 220 (ЮЗ) 20000 м    10/10 360 м 
[Sc]
-4.5 -5.8 91 -6  1021.3  -2  753  309           
03 19.01.17 230 (ЮЗ) 20000 м    10/10 360 м 
[Sc]
-3.7 -4.8 92 -6  1018.1  -3.1  751  307  -6.5    0.0  33  равномерный
сухой снег
100% 
06 19.01.17 230 (ЮЗ) 10 км  слаб. снег  10/10 420 м 
[Sc]
-2.9 -4.6 88 -5  1014.9  -3.1  749  305           
09 19.01.17 250 (З) 10 км  слаб. снег  10/10 400 м 
[Sc]
-2.2 -4 87 -5  1012.2  -2.6  747  304           
12 19.01.17 260 (З) 4{10}  20000 м  {снег}  10/10 480 м 
[Sc]
-1.1 -3.4 84 -4  1010.2  -1.9  745  302           
15 19.01.17 250 (З) 20000 м    10/10 600 м 
[Sc]
-0.7 -2.9 85 -3  1007.8  -2.3  744  301    -0.7  0.2     
18 19.01.17 260 (З) 20000 м    10/10 840 м 
[Sc]
-0.3 -3 82 -3  1004.5  -3.2  741  299           
21 19.01.17 250 (З) 5-10{13}  20000 м  снежные кристаллы  10/10 660 м 
[Sc]
+0.4 -2.1 83 -3  1000  -4.5  738  297           
00 20.01.17 270 (З) 6-13{13}  20000 м  снежные кристаллы  10/10 600 м 
[Sc]
+1.2 -1.4 83 -2  997.6  -2.2  736  295           
03 20.01.17 300 (СЗ) 7-14{14}  20000 м  позёмок{снег}  6/6 600 м 
[Sc]
-0.6 -5.4 70 -5  999.1  1.3  737  298  -1.6    0.9  33  равномерный
сухой снег
100% 
06 20.01.17 310 (СЗ) 5-10{17}  20000 м  позёмок{снег}  9/9 1020 м 
[Sc]
-2.2 -6.1 75 -6  1002.3  3.1  740  301  -2.8         
09 20.01.17 310 (СЗ) 8-12{15}  20000 м  позёмок{снег}  9/9 1000 м 
[Sc]
-4 -9.4 66 -9  1005.1  2.6  741  304           
12 20.01.17 300 (СЗ) 6-10{14}  20000 м  позёмок{снег}  1/1 1000 м 
[Sc]
-5.8 -12 62 -10  1006.9  1.6  743  307           
15 20.01.17 280 (З) 3{10}  20000 м    ясно 
-7.4 -13.3 63 -10  1008.2  1.2  744  309    -0.6  0.9     
18 20.01.17 270 (З) 20000 м    ясно 
-7.3 -11.6 71 -11  1006.8  -1.3  743  309           
21 20.01.17 270 (З) 20000 м    9/9 700 м 
[Sc]
-7.2 -11.1 74 -10  1005.2  -1.6  741  308           
00 21.01.17 280 (З) 5-10{11}  10 км  слаб. снег  10/10 400 м 
[Sc]
-6.2 -8.9 81 -10  1002.4  -2.7  739  306           
03 21.01.17 310 (СЗ) 6{11}  20000 м  позёмок{снег}  9/9 960 м 
[Sc]
-5.3 -9.9 70 -10  1001.9  -0.4  739  305  -9.4    0.0  32  равномерный
сухой снег
100% 
06 21.01.17 300 (СЗ) 20000 м  {снег}  3/3 600 м 
[Sc]
-8.4 -11.6 78 -11  1002.8  0.7  740  309           
09 21.01.17 310 (СЗ) 20000 м    4/4 2000 м средняя 
[Ac trans]
-7.1 -11.4 71 -11  1004  1.2  740  307           
12 21.01.17 310 (СЗ) 7-12{12}  10 км  слаб. снег  9/9 720 м 
[Sc]
-7.1 -10.9 74 -12  1005.7  1.7  742  308           
15 21.01.17 310 (СЗ) 6-10{13}  20000 м  позёмок{снег}  10/10 720 м 
[Sc]
-7.4 -10.8 77 -12  1007.8  743  309    -5.3  0.0     
18 21.01.17 310 (СЗ) 4{12}  20000 м  {снег}  3/3 2000 м средняя 
[Ac trans]
-9.4 -12.8 76 -13  1009.4  1.5  744  312           
Время (UTC), дата Ветер
(°,м/с) 
Видим.   Явления Облачность Т
(°С)
Тd
(°С)
f(%) Тe
(°С)
Pmin
(гПа)
dP
(гПа)
Po
(мм)
O2
(г/м3)
Тmin Tmax R s Состояние
почвы

Для получения пояснительной информации подведите курсор к названию столбца.

ПОГОДА в Вологде - архив

Всё, что Вы хотите узнать о погоде в Вологде - удобно и подробно!

Выберите нужную дату (начиная с 1 января 2015* года) и нажмите кнопку "Найти".
Будут отображены архивные сводки погоды по пункту Вологда, начиная с указанной даты.


Отображать данные в формате CSV (для использования в таблицах Excel)


Внимание! Наш архив погоды предназначен исключительно для личного некоммерческого использования в познавательных целях. Если Вам необходимы официальные справки о состоянии погоды (для производственных, юридических, коммерческих и т.п. целей), обращайтесь в органы Росгидромета.

*Примечание: данная дата относится к архиву по метеостанциям СССР (Россия, СНГ, Балтия).
Архив по метеостанциям Зарубежной Европы и Азии (кроме Китая) хранится 10 дней, по другим регионам земного шара (Китай, Африка, Америка, Австралия, Океания) - 1 день.

Вологда - район местоположения метеостанции


Название, широта, долгота, высота метеостанции:
Вологда (город) 59.3°ш. 39.9°д. 130 м над ур. моря [Российская Федерация]

Дополнительная информация

В oтличие oт бoльшинства пoгoдных сайтoв мы публикуем пoдрoбную метеoинфoрмацию в детальнoм прoфессиoнальнoм фoрмате.

Характеристики температуры и влажнoсти вoздуха измеряются на высoте 2 м в тени вдали oт зданий и деревьев.
Скoрoсть ветра измеряется на высoте 10 м (на урoвне рoста челoвека скoрoсть ветра ниже в 1.5-2 раза). Если метеoстанция нахoдится в гoрoде или в лесу, тo скoрoсть ветра занижена на 2-4 м/с пo сравнению с oткрытым местoм. Скoрoсть ветра над акватoриями крупных рек и oзёр, а также на вершинах хoлмoв на 2-5 м/с выше, чем в oбычных услoвиях.
Атмoсфернoе давление в разных тoчках местнoсти мoжет значительнo oтличаться oт давления на метеoстанции, в зависимoсти oт услoвий рельефа (при пoдъёме на 10 м давление пoнижается примернo на 1 мм рт.ст.).